Theta_e
314 314 315 316 316 316 315 313 311 304 302 302 301 301 302 300 301 300 302 300 300 301 305 301 305 306 304 303 304 312 323 330 333 330 332 320 322 316 313 320 314 314 315 308 304
314 314 315 315 315 314 314 315 312 308 303 302 301 304 302 299 301 303 300 299 300 302 301 304 304 301 301 302 304 313 318 325 324 326 326 319 316 317 312 311 313 310 304 303 304
313 313 312 312 314 315 315 316 315 311 308 306 305 304 299 298 297 297 301 303 302 303 301 304 304 302 302 301 303 309 316 316 317 318 315 313 310 311 310 312 313 314 311 302 302
313 313 311 311 313 315 315 316 315 313 312 311 307 307 298 299 297 300 301 301 302 302 300 305 303 302 302 303 303 307 311 313 316 312 309 310 309 310 307 316 311 310 307 302 302
310 310 309 308 310 312 312 312 313 312 306 310 308 306 301 296 295 299 299 299 300 300 302 304 304 304 303 305 307 310 307 310 311 310 308 305 307 309 307 308 307 305 303 303 303
306 306 306 307 308 308 310 311 311 311 305 303 308 305 297 294 297 298 298 298 300 301 301 303 304 304 306 308 309 308 308 307 307 308 305 305 306 304 307 308 306 305 305 304 303
303 303 304 304 305 305 307 311 311 310 300 299 306 305 297 294 297 297 298 298 299 301 299 302 303 303 305 307 305 304 305 306 306 307 307 302 306 303 307 308 307 306 306 304 303
300 300 300 301 301 302 304 310 311 309 299 298 306 304 293 296 297 296 297 298 298 299 300 300 301 301 303 304 305 304 305 308 308 306 306 307 312 310 307 304 306 305 304 301 302
299 299 299 299 299 300 300 310 311 304 300 303 305 296 294 295 296 296 297 297 298 298 298 299 300 301 301 305 307 305 307 306 307 305 302 304 308 308 302 302 303 302 302 301 302
298 298 298 298 299 299 301 310 306 301 302 306 296 295 296 296 296 296 296 298 297 296 297 298 297 299 299 305 305 305 305 304 306 305 301 302 303 303 305 303 303 303 302 299 300
298 298 297 297 298 302 307 308 304 305 297 296 298 296 297 297 296 295 296 297 296 296 296 296 298 299 300 305 302 303 304 304 305 302 303 302 303 303 304 301 301 303 303 303 302
297 297 297 298 297 296 304 302 297 296 298 301 304 306 306 298 298 294 296 297 296 296 294 296 298 298 297 300 302 303 304 303 301 300 300 300 300 300 300 301 301 302 302 302 302
296 296 296 296 296 295 297 296 295 298 301 304 302 305 305 298 304 302 296 295 296 294 295 297 297 295 298 298 301 300 303 302 302 299 297 297 299 300 298 299 299 300 301 301 301
294 294 295 294 294 293 297 295 293 296 305 306 304 301 294 296 299 295 296 296 295 297 294 296 294 295 296 297 298 300 297 300 300 300 298 296 297 299 300 301 299 299 300 300 300
293 292 292 293 292 292 293 292 292 299 301 298 301 296 294 299 296 295 296 296 296 295 296 298 294 295 296 297 297 298 294 296 297 296 298 297 297 298 299 299 299 299 299 298 296
292 291 291 291 292 292 293 293 297 305 304 300 296 295 295 295 296 295 296 296 295 295 295 296 294 295 295 295 295 295 298 298 296 296 296 296 296 302 299 298 299 301 302 302 301
292 291 289 290 291 291 292 292 302 303 296 295 296 295 295 295 295 295 296 296 296 297 298 297 296 295 295 297 297 297 297 299 297 295 300 295 295 301 299 298 298 298 298 298 297
291 289 289 291 293 292 291 292 298 288 292 299 297 296 296 295 295 295 295 295 295 296 296 299 299 296 294 297 298 297 298 300 298 298 299 296 298 299 297 296 297 296 298 298 297
289 288 289 291 292 291 291 291 287 295 294 294 296 298 291 295 296 296 294 294 295 295 298 296 298 295 295 295 297 298 299 297 299 292 300 301 300 299 300 300 299 299 299 299 299
289 288 288 290 289 291 286 291 291 292 292 292 295 298 298 298 297 294 295 295 296 295 295 298 299 295 294 294 294 297 297 299 297 296 298 299 298 301 302 302 300 299 297 297 297
288 286 288 288 290 283 281 281 290 289 291 292 291 293 296 297 298 299 298 296 294 295 295 297 302 296 295 295 297 297 298 296 298 300 302 300 301 296 299 300 298 296 296 295 294
287 282 288 288 282 269 280 288 289 290 291 291 293 291 292 292 294 296 299 301 302 297 296 296 301 298 294 293 293 294 298 297 300 298 298 300 301 298 299 297 296 295 294 294 293
287 283 288 289 280 277 280 285 287 289 289 290 290 290 290 291 291 291 292 291 292 295 304 299 302 294 305 298 293 292 295 297 298 299 299 301 301 296 296 295 293 294 295 295 294
287 283 281 280 281 287 283 284 286 287 288 290 290 290 290 289 289 292 290 290 290 291 297 298 304 303 306 303 294 294 294 296 300 303 302 301 301 299 297 295 294 294 293 293 292
280 282 281 283 284 278 282 286 287 287 287 289 287 290 289 287 289 289 289 288 288 293 291 293 298 307 306 302 297 294 294 296 298 300 302 304 300 298 296 296 293 292 291 290 290
285 286 287 283 278 283 280 284 287 287 285 286 286 288 287 288 289 288 289 288 288 288 290 292 295 298 304 305 308 310 305 296 297 298 299 299 299 297 295 292 291 290 290 289 288
287 287 285 285 281 283 282 286 287 287 288 287 287 287 287 288 287 287 288 288 289 289 289 291 296 294 297 299 304 308 309 298 300 300 300 301 301 297 296 292 290 289 288 288 287
Wind_Speed
19 19 19 19 20 21 21 20 19 19 18 19 17 17 16 15 15 10 8 11 8 15 9 5 4 5 4 2 3 2 2 9 15 11 12 4 5 3 1 3 3 6 3 1 9
22 22 22 22 22 22 22 22 20 20 19 19 18 17 15 14 16 11 15 10 10 10 9 9 4 7 3 3 3 5 4 11 6 7 6 4 6 4 2 4 5 4 2 2 19
25 24 25 25 25 24 24 23 22 20 21 19 17 15 13 10 4 5 2 11 11 11 7 7 6 4 4 4 5 5 7 8 5 6 5 4 4 4 5 6 10 8 8 8 12
21 21 24 26 26 25 25 24 24 23 23 20 15 12 7 3 7 2 6 9 10 11 9 8 4 5 5 7 6 4 10 6 4 4 4 5 2 5 8 16 6 12 4 7 15
23 23 25 28 27 27 28 27 28 26 26 17 12 7 1 0 9 5 7 7 9 11 11 7 5 5 6 5 5 5 4 5 5 8 8 3 9 8 6 22 6 4 7 12 14
26 27 27 29 29 30 29 29 30 29 24 16 9 2 3 5 5 7 8 8 10 12 8 8 6 6 4 5 6 3 5 6 7 8 6 7 8 8 11 11 13 11 16 13 16
27 29 30 31 32 33 31 29 30 30 19 13 6 6 2 15 6 9 9 9 10 11 5 8 4 4 3 3 3 2 6 6 9 5 8 6 7 11 25 13 13 15 16 13 16
29 30 31 33 34 35 34 28 29 24 12 7 6 6 7 5 8 12 11 8 8 11 7 3 6 4 3 4 5 3 1 4 3 6 4 8 14 12 13 7 15 11 9 9 14
30 31 32 35 36 38 36 27 28 9 5 2 4 2 9 3 5 12 14 6 8 5 6 1 4 4 1 4 4 3 6 8 7 9 3 7 5 7 2 4 9 8 9 9 12
31 32 34 37 40 42 31 20 13 3 1 5 1 2 5 5 5 7 12 10 3 5 3 3 2 3 1 5 12 9 7 5 6 2 2 6 18 16 15 10 15 15 14 11 12
31 32 34 37 40 29 24 6 6 2 2 7 5 6 6 4 7 8 9 10 5 2 7 4 4 10 15 21 1 4 4 5 2 2 3 8 20 17 17 10 12 17 18 18 16
31 33 34 35 34 25 14 5 6 8 13 14 24 23 28 8 6 7 15 9 7 8 7 2 16 16 7 6 7 6 5 10 5 4 4 9 25 18 16 22 19 21 21 22 21
32 33 34 35 24 30 11 11 25 17 7 8 10 10 7 18 15 14 18 6 7 10 14 13 7 6 13 6 11 10 18 6 9 5 4 6 23 15 10 13 13 17 21 19 22
33 33 33 35 8 27 6 26 30 16 5 8 6 7 5 7 6 3 17 7 5 16 9 11 5 8 6 11 10 15 10 7 6 3 5 1 12 8 4 14 8 11 15 18 14
31 31 29 21 15 10 13 27 28 0 5 8 4 2 3 4 5 1 4 2 7 8 8 10 10 8 11 9 13 7 5 8 4 4 2 3 3 6 3 6 9 13 13 10 9
31 32 33 21 17 19 14 26 8 3 12 7 2 2 3 2 1 2 4 1 3 5 4 5 1 6 7 3 7 9 7 6 4 3 3 10 8 32 7 8 5 3 3 2 1
35 38 30 20 9 24 20 8 4 8 6 9 5 3 4 5 4 5 7 8 7 6 12 3 6 4 4 6 2 3 7 0 2 0 9 2 6 23 12 11 7 8 7 7 7
36 37 22 13 16 19 7 3 9 3 6 9 11 8 5 3 4 5 5 4 9 2 3 8 6 12 8 9 10 8 8 7 9 6 4 3 10 8 8 10 10 7 8 7 7
35 33 12 11 13 13 3 1 4 8 9 17 21 8 6 4 5 5 7 5 7 13 10 6 6 0 2 1 9 7 9 4 6 2 2 5 8 8 13 13 9 6 5 6 3
26 13 9 10 24 7 3 5 7 17 13 11 7 8 10 12 13 6 9 5 5 16 3 5 3 0 1 1 1 5 3 3 1 3 4 6 7 7 12 7 6 9 8 7 7
9 4 4 23 15 4 2 4 10 13 13 5 11 7 12 14 9 7 6 7 9 9 11 3 5 1 2 7 9 4 4 2 3 5 6 2 6 5 3 3 8 8 10 11 9
4 3 9 18 4 1 0 6 14 9 5 6 6 11 10 16 6 7 10 11 16 11 5 6 2 8 11 1 2 4 8 8 5 6 3 2 6 4 5 8 11 10 12 13 14
4 3 5 6 2 4 6 6 6 10 10 10 7 3 5 9 8 14 18 21 23 12 6 5 4 2 0 2 3 3 4 4 4 3 7 6 6 5 6 9 10 11 11 11 13
3 3 4 4 0 3 3 7 7 5 9 6 9 5 7 12 9 8 19 10 21 20 19 21 5 6 15 10 6 6 8 14 14 5 13 7 4 3 5 7 7 8 9 11 12
2 3 3 4 6 1 2 6 13 11 3 5 9 7 11 6 12 6 14 15 15 7 12 9 8 11 20 20 3 4 7 14 15 24 16 24 14 9 6 6 6 6 9 12 14
1 3 1 3 3 4 4 4 11 8 2 14 4 12 14 11 11 17 15 11 6 16 12 2 6 15 15 16 17 21 12 11 21 20 20 19 12 5 10 11 11 11 10 11 11
3 6 2 5 3 1 4 8 19 17 12 6 9 12 16 18 6 12 13 17 16 17 14 4 6 9 4 13 14 12 12 10 8 6 13 17 14 3 7 11 11 10 10 10 11
Wind_Direction
22 15 10 6 359 356 350 345 339 334 326 318 318 315 313 313 307 298 234 244 235 219 203 186 159 148 131 160 172 125 193 237 240 214 237 178 193 184 144 237 214 206 214 356 153
15 10 5 1 356 352 349 344 341 337 331 322 317 311 313 316 310 246 263 229 216 196 192 171 164 145 132 188 204 174 199 228 214 230 229 196 198 197 195 210 246 248 200 130 163
7 4 1 356 353 349 345 342 340 335 330 320 313 307 315 324 310 244 193 194 202 193 197 180 155 136 183 158 200 196 223 231 252 225 204 208 223 205 197 230 221 214 206 168 178
10 0 352 349 351 349 344 339 337 332 325 313 303 298 313 327 278 188 145 176 196 199 187 155 139 161 202 202 197 204 243 221 268 249 183 232 180 239 197 242 199 225 150 167 186
356 354 349 351 352 347 342 339 336 331 330 306 294 298 303 333 252 216 181 184 198 196 195 174 165 165 191 208 179 218 255 239 248 249 232 305 247 231 251 257 224 225 185 195 203
359 354 349 348 349 344 339 336 334 332 331 318 290 231 144 250 240 204 202 197 207 194 200 180 206 208 221 218 182 225 245 256 266 248 224 207 245 150 248 263 224 218 228 211 204
357 352 349 346 345 340 335 333 333 328 324 310 258 189 194 239 220 203 202 218 215 201 189 216 215 188 173 261 248 247 293 291 228 222 229 170 258 224 238 253 240 230 235 219 215
357 352 350 345 340 336 330 327 326 318 314 303 176 174 245 241 230 219 207 211 211 211 219 229 217 215 206 300 333 274 182 293 289 146 228 157 258 248 242 212 246 246 239 224 228
357 356 352 346 341 335 328 322 320 301 298 195 177 191 263 260 220 221 208 192 183 199 210 172 148 210 151 142 327 258 246 215 311 198 136 192 255 257 93 215 268 269 263 239 239
356 353 350 346 340 333 327 326 321 283 154 181 282 311 262 240 187 185 188 179 155 130 90 155 74 173 151 148 227 204 234 236 222 185 194 264 259 270 269 263 264 267 264 252 241
353 351 348 345 342 348 351 3 12 340 252 220 194 251 276 206 185 190 173 147 122 129 180 212 172 205 200 210 252 147 217 231 235 171 240 238 264 262 266 258 246 256 256 255 244
352 349 347 346 345 358 37 47 21 300 292 239 252 256 249 191 237 208 166 160 166 194 136 111 233 220 198 217 233 244 269 258 277 258 202 294 278 271 260 258 243 247 252 248 247
357 357 353 348 336 354 15 40 355 345 257 246 214 235 222 184 233 215 169 160 175 174 190 200 210 172 187 181 206 233 235 226 241 331 256 320 280 270 243 257 251 248 247 252 244
356 352 350 349 17 343 335 336 331 336 288 274 225 259 147 150 234 173 179 152 210 209 157 236 196 144 179 212 171 240 198 182 189 127 245 63 285 217 221 252 223 239 238 245 246
357 349 342 343 325 312 315 324 328 308 286 259 209 135 146 184 131 135 184 78 186 175 145 224 173 181 198 199 181 234 140 166 150 173 16 198 256 261 64 269 265 241 244 257 248
352 343 336 335 316 314 322 313 325 222 244 273 137 122 115 241 216 123 165 202 153 149 253 241 139 178 197 86 164 150 85 61 56 106 280 181 169 277 222 220 259 249 189 213 228
349 343 344 345 303 318 331 352 222 214 337 307 351 359 310 223 220 182 170 183 170 154 225 129 210 177 156 100 61 151 125 232 333 359 236 215 187 251 305 274 230 259 278 284 298
344 342 2 19 3 6 359 43 231 266 298 354 360 300 230 169 252 188 155 205 242 113 115 183 272 170 179 193 165 198 175 171 195 193 228 105 235 248 232 280 259 249 261 287 309
345 340 334 10 3 6 56 263 245 343 7 343 327 301 291 265 221 161 209 229 218 183 184 159 261 134 328 177 153 188 219 140 99 57 48 219 275 272 270 272 307 330 282 257 250
341 325 307 3 337 334 65 307 324 333 331 330 314 309 342 331 329 310 181 212 229 193 170 234 277 202 131 258 298 160 176 102 10 171 227 261 282 237 296 302 360 7 6 336 17
4 359 334 339 336 53 115 244 310 315 337 325 306 293 299 333 329 328 299 328 353 350 213 182 178 91 84 216 186 147 182 214 146 171 185 241 258 222 293 42 53 15 34 33 36
10 355 335 345 30 326 316 297 305 305 285 288 284 331 4 332 303 279 271 304 342 328 277 244 202 216 203 253 350 329 208 167 146 225 236 156 263 5 53 103 69 35 35 36 38
342 266 342 1 59 315 309 304 257 311 317 316 298 295 326 328 322 335 4 331 344 343 329 326 244 240 71 5 17 214 215 229 97 105 202 154 261 356 82 71 45 55 35 34 30
7 342 320 32 14 304 316 298 303 300 281 317 295 306 328 319 321 299 343 334 329 319 336 339 213 245 240 221 138 187 202 204 203 210 222 211 143 271 56 70 42 41 39 34 35
31 271 210 306 318 224 286 270 297 325 293 345 310 311 341 298 316 348 325 322 326 334 334 359 292 271 237 260 179 206 213 203 207 221 216 230 216 217 156 107 75 59 45 39 26
9 327 292 275 269 314 306 279 297 304 76 309 282 311 327 297 276 298 317 316 275 307 329 347 296 301 303 265 248 249 230 201 209 227 239 256 254 99 90 84 54 41 43 49 39
286 275 256 294 307 313 256 283 299 302 291 245 274 302 297 289 293 291 283 279 269 275 287 277 298 331 269 342 295 253 233 192 198 211 223 239 253 3 61 61 55 56 44 43 41